Temperature
15 15 15 16 16 16 17 17 17 17 17 17 17 18 18 18 18 17 17 17 17 17 17 17 17 17 17 17 17 16 16 16 16 16 15 15 15 15 15 15 15 15 14
15 15 15 16 16 16 17 17 17 17 17 17 17 17 17 17 17 17 17 17 17 17 17 17 17 17 17 17 17 16 16 16 16 16 15 15 15 15 15 15 15 14 14
15 15 15 16 16 16 16 17 17 17 17 17 17 17 17 17 17 17 17 17 17 17 17 17 17 17 17 16 16 16 16 16 16 16 15 15 15 15 15 15 15 14 14
15 15 15 15 16 16 16 16 16 17 17 17 17 17 17 17 17 17 17 17 17 17 17 17 17 17 16 16 16 16 16 16 16 15 15 15 15 15 15 15 14 14 14
14 15 15 15 15 15 16 16 16 16 16 16 16 16 16 16 16 16 17 17 16 16 16 16 16 16 16 16 16 16 16 16 15 15 15 15 15 14 14 14 14 14 14
14 14 14 15 15 15 15 15 15 16 16 16 16 16 16 16 16 16 16 16 16 16 16 16 16 16 16 16 16 16 15 15 15 15 15 15 15 14 14 14 14 14 14
14 14 14 14 14 15 15 15 15 15 15 15 15 16 16 16 16 16 16 16 16 16 16 16 16 16 16 16 15 15 15 15 15 15 15 15 14 14 14 14 14 14 14
14 14 14 14 14 14 14 14 14 14 14 15 15 15 15 15 15 16 15 15 15 15 16 16 16 16 16 16 15 15 15 15 14 14 14 14 14 14 14 14 14 14 13
13 13 13 13 13 13 13 14 14 14 14 14 14 15 15 15 15 15 15 15 15 15 15 15 15 15 15 15 15 15 15 15 14 14 14 14 14 14 14 14 14 13 13
13 13 13 13 13 13 13 13 13 13 13 13 14 14 14 14 14 15 15 15 15 15 15 15 15 15 15 15 15 15 14 14 14 14 14 14 14 14 14 13 13 13 13
12 12 12 12 12 12 12 12 12 13 13 13 13 13 13 14 14 14 14 14 14 14 14 14 15 15 15 15 14 14 14 14 14 14 14 13 13 14 13 13 13 13 13
12 11 11 11 11 11 11 11 12 12 12 12 12 12 13 13 13 13 13 14 14 14 14 14 14 14 14 14 14 14 13 13 13 13 13 13 13 13 13 13 13 13 13
11 11 11 11 11 11 11 11 11 11 11 11 11 11 12 12 12 12 13 13 13 13 13 13 13 14 14 14 14 13 13 13 13 13 13 13 13 13 13 13 13 13 13
11 11 11 10 10 10 10 10 10 10 10 11 11 11 11 11 11 12 12 12 12 12 12 13 13 13 13 13 13 13 13 13 13 13 13 13 13 13 13 13 13 13 13
10 10 10 10 10 10 10 10 10 10 10 10 10 10 10 10 10 11 11 11 11 11 12 12 12 12 12 12 12 12 12 12 12 12 12 12 12 12 12 12 12 12 12
10 10 10 10 10 9 9 9 9 9 9 9 9 9 9 9 10 10 10 10 11 11 11 11 11 11 11 11 11 12 12 12 12 12 12 12 12 12 12 12 12 12 12
10 10 10 9 9 9 9 9 9 9 8 8 9 9 9 9 9 9 9 10 10 10 10 10 10 10 11 11 11 11 11 11 11 11 11 11 11 12 12 12 12 12 12
10 9 9 9 9 9 8 8 8 8 8 8 8 8 8 8 8 8 9 9 9 9 9 9 9 10 10 10 10 10 10 10 10 11 11 11 11 11 11 11 11 11 12
9 9 9 9 9 8 8 8 8 8 8 8 8 8 8 8 8 8 8 8 8 8 9 9 9 9 9 9 9 10 10 10 10 10 10 10 10 11 11 11 11 11 11
9 9 9 9 8 8 8 8 8 8 7 7 7 7 7 7 7 7 7 8 8 8 8 8 8 8 8 8 8 9 9 9 10 10 10 10 10 10 10 11 11 11 11
9 9 9 8 8 8 7 7 7 7 7 7 7 7 7 7 7 7 7 7 7 7 7 7 7 7 8 7 7 8 8 9 9 9 9 9 9 10 10 10 10 10 10
9 8 8 8 8 7 7 7 7 7 7 7 7 7 7 6 6 6 6 7 7 7 7 7 7 7 7 7 6 6 7 8 8 8 9 9 9 9 9 9 10 10 10
8 8 8 8 7 7 7 7 7 7 6 6 6 6 6 6 6 6 6 6 6 6 6 6 6 6 6 6 6 6 6 6 7 8 8 8 8 8 9 9 9 9 9
8 8 8 7 7 7 7 6 6 6 6 6 6 6 6 6 6 6 6 6 6 6 6 6 6 6 6 6 6 6 6 6 6 6 7 7 8 8 8 8 9 9 9
8 8 7 7 7 7 6 6 6 6 6 6 5 5 5 5 5 5 5 5 5 5 5 5 5 5 5 5 5 5 5 6 6 5 6 6 7 8 8 8 8 8 9
8 8 7 7 7 6 6 6 6 6 5 5 5 5 5 5 5 5 5 5 5 5 5 5 5 5 5 5 5 5 5 5 5 5 5 6 6 7 7 8 8 8 8
Wind_Speed
2 2 7 9 9 9 10 10 10 10 10 9 8 7 7 6 6 6 6 7 7 7 7 7 7 7 8 9 10 10 10 11 11 10 10 10 10 10 10 10 10 10 12
2 3 8 10 10 10 10 10 10 9 9 8 8 7 6 5 4 5 5 5 5 6 6 6 6 7 7 9 9 10 10 11 10 10 10 10 10 10 10 11 10 9 11
4 5 8 10 11 10 10 11 10 9 8 8 7 7 5 4 4 3 3 4 4 4 5 6 6 6 6 8 9 10 10 11 11 10 9 8 8 10 10 11 10 11 12
6 7 8 10 10 10 10 10 10 9 8 7 7 6 5 4 3 2 2 2 3 3 4 4 5 5 5 7 9 10 10 10 10 10 8 7 8 9 10 11 11 11 11
6 7 8 10 10 10 10 10 10 10 8 7 6 6 5 4 2 1 1 1 2 2 3 3 4 5 6 6 7 9 10 10 10 10 8 8 7 9 10 11 11 12 12
5 6 8 9 9 10 10 10 10 10 9 8 7 6 5 5 3 2 1 0 1 2 3 3 3 4 6 6 7 8 9 10 9 8 8 8 8 9 10 11 11 12 12
4 5 7 8 9 9 9 10 10 11 10 9 8 7 6 6 5 3 2 1 1 1 2 3 3 4 5 6 6 7 9 9 9 8 8 8 9 11 11 11 12 12 12
5 4 6 7 8 8 9 9 10 10 10 10 9 8 7 7 6 4 3 2 2 1 2 3 3 4 4 5 6 7 8 8 8 8 8 8 10 12 12 12 13 13 13
5 5 6 6 7 7 8 8 9 10 10 11 11 10 9 8 7 6 4 3 3 2 2 2 3 3 4 5 5 5 7 8 8 7 8 8 11 13 13 12 13 14 14
4 4 4 5 6 6 6 8 9 10 10 11 11 11 10 9 8 7 6 4 3 4 3 3 3 3 4 4 5 5 5 6 7 7 8 9 11 13 14 14 14 14 14
4 3 3 3 4 4 4 6 7 8 9 10 10 11 10 8 7 6 7 6 5 4 4 4 4 3 3 4 4 4 4 4 6 6 8 10 12 13 14 14 15 15 15
1 1 1 2 2 3 3 4 4 5 6 8 8 8 8 7 6 6 7 7 5 5 5 5 5 3 2 2 3 3 3 4 6 6 8 11 12 14 14 15 15 15 16
1 0 0 1 2 2 2 3 3 3 4 5 6 7 7 6 6 6 5 5 5 4 4 5 4 3 2 2 2 2 3 4 5 6 9 12 13 14 15 15 15 15 16
2 2 1 1 1 1 1 1 1 2 2 3 5 5 5 3 3 3 3 3 3 3 3 3 2 3 3 3 3 3 4 3 5 6 8 12 13 14 15 15 16 16 16
3 3 2 1 1 1 0 1 1 1 1 3 4 5 4 2 3 2 2 2 2 3 2 2 3 3 3 3 3 4 5 4 5 6 7 12 13 14 15 15 16 16 17
4 3 3 2 1 1 1 2 2 2 2 3 3 5 5 3 3 3 3 2 2 3 3 3 3 4 4 3 4 4 5 4 5 6 7 10 12 14 16 16 16 16 17
5 3 3 2 1 1 2 3 2 2 3 2 3 5 5 5 4 3 3 3 3 3 3 3 3 3 4 4 4 5 4 5 5 7 7 8 10 13 15 16 16 16 16
4 3 3 2 1 2 3 4 3 3 3 3 4 5 6 6 5 4 4 4 4 3 2 3 3 3 4 4 4 4 4 5 6 7 7 8 8 9 12 15 16 17 17
5 4 3 3 2 3 3 4 4 3 4 4 4 5 6 7 7 5 4 5 4 3 3 4 3 3 4 4 4 4 4 5 6 7 7 7 8 8 9 12 15 16 16
4 4 3 3 3 3 2 2 2 3 4 4 5 6 7 7 7 5 5 5 4 3 3 3 4 3 4 4 5 5 5 5 5 6 7 6 7 8 8 9 10 12 14
3 3 3 3 4 3 2 2 2 3 4 4 5 7 7 7 7 5 6 5 4 5 5 5 4 4 3 2 2 4 5 5 6 5 5 5 6 7 7 8 8 9 10
3 3 4 5 5 4 3 3 3 4 4 5 5 6 7 7 6 6 6 6 5 5 6 5 4 3 4 2 2 2 3 3 4 5 5 6 6 6 6 8 8 8 8
4 5 5 5 5 5 5 3 3 2 3 3 4 4 5 6 6 6 6 6 6 6 6 6 6 5 5 4 4 3 2 3 3 4 5 6 6 5 6 6 8 8 9
6 5 5 6 6 6 5 4 4 4 6 6 5 5 6 7 7 7 7 7 7 6 6 7 6 6 6 6 4 5 5 4 3 3 3 5 7 7 7 6 7 8 9
6 5 6 6 6 6 5 5 5 6 7 6 5 7 7 6 7 7 8 7 8 7 7 8 7 7 7 7 6 4 5 6 6 5 6 5 5 6 7 7 7 7 9
5 5 5 6 7 6 6 6 6 8 8 8 8 7 6 5 6 7 8 7 8 8 9 9 9 9 9 8 8 7 6 5 6 6 7 7 6 6 6 7 7 7 8
Wind_Direction
300 350 51 50 51 53 56 55 54 55 53 54 57 63 74 87 96 103 109 117 121 127 133 134 138 141 140 139 139 138 139 141 140 134 131 130 127 123 123 122 119 114 119
177 75 62 55 53 50 50 51 52 52 50 49 50 54 62 73 91 107 116 125 130 135 143 145 142 145 149 147 145 145 148 148 144 139 137 137 134 133 132 131 129 126 126
105 77 65 59 54 50 48 45 46 47 47 44 42 44 48 58 75 101 121 131 142 150 152 151 149 149 154 159 155 154 156 154 152 147 143 139 142 142 141 140 138 133 132
93 77 66 61 55 51 47 43 40 38 40 39 34 32 34 40 55 80 114 138 149 159 165 165 164 160 160 165 168 167 164 161 159 155 151 152 154 154 151 147 145 140 137
81 75 70 64 56 50 45 42 37 33 29 30 29 25 21 20 23 34 73 152 161 165 170 176 177 172 172 173 176 178 175 170 164 164 158 160 165 165 160 155 152 147 143
85 75 74 67 58 50 45 40 36 30 26 21 18 17 12 5 1 355 340 289 200 182 177 181 185 184 184 182 183 186 181 174 167 166 164 166 174 174 169 163 160 155 151
97 72 71 66 58 49 43 41 36 29 23 19 12 7 6 4 355 345 336 307 266 217 204 198 196 192 191 191 192 189 184 180 172 170 172 174 180 183 181 176 169 166 161
109 79 66 60 55 49 42 37 32 25 21 16 12 6 360 359 356 348 341 334 313 286 251 217 210 203 199 195 198 195 187 181 177 179 181 183 187 192 190 185 180 173 168
86 73 57 54 52 46 41 36 28 24 21 17 13 8 2 358 355 349 347 342 337 316 293 258 234 226 217 210 203 196 191 185 178 183 188 190 193 197 195 192 187 182 176
67 64 57 50 51 46 41 36 29 23 21 17 13 9 4 358 354 354 354 350 345 339 317 298 258 241 231 230 217 205 195 188 185 188 195 199 199 201 200 195 191 189 185
49 39 46 44 41 41 35 31 27 20 16 12 8 6 3 356 351 350 351 355 352 350 334 319 293 258 242 239 228 217 198 192 188 191 200 207 208 208 205 201 195 193 191
49 4 24 28 34 37 27 30 23 15 10 7 3 359 359 355 352 351 346 350 349 345 337 322 313 283 262 249 232 215 198 196 192 199 208 211 213 214 212 207 200 197 195
201 245 330 355 25 40 29 20 12 6 2 357 355 353 353 352 349 349 352 346 344 344 344 324 319 305 285 269 247 220 211 202 206 212 215 214 217 219 218 212 205 202 201
193 227 240 288 14 5 39 7 353 353 351 346 340 344 353 353 339 340 345 342 345 337 328 324 309 298 291 272 251 233 223 216 217 222 223 218 219 222 222 217 211 209 208
196 217 227 240 245 272 267 296 339 312 315 318 326 332 336 334 306 304 313 326 330 333 313 292 294 281 270 267 259 246 232 228 221 222 224 221 221 223 225 223 217 214 212
206 216 224 234 239 252 246 250 264 291 301 308 313 311 311 312 304 286 284 285 295 306 305 285 277 275 257 255 257 252 243 235 227 225 225 223 223 225 227 225 222 218 215
206 211 220 234 239 255 254 250 266 272 287 282 288 295 297 293 295 284 270 267 272 291 297 295 284 286 270 260 258 258 249 240 237 229 224 221 222 224 227 229 226 222 220
194 205 224 236 242 255 251 247 249 258 263 265 274 283 285 282 280 280 273 263 269 279 274 269 270 279 279 263 262 262 258 247 239 232 223 221 221 224 226 229 230 227 224
193 201 220 228 234 252 260 256 250 254 257 264 268 272 275 274 271 262 269 266 261 253 251 266 268 250 270 277 268 261 256 257 247 236 227 221 221 222 220 225 229 229 227
197 205 219 237 249 259 277 280 268 261 259 262 261 263 266 268 268 259 261 265 253 245 251 251 257 255 252 267 277 272 263 258 253 239 228 222 221 221 218 221 221 226 227
206 217 226 238 256 260 280 276 262 260 256 257 255 260 263 265 265 254 262 260 254 244 242 245 251 254 254 254 280 287 282 258 252 246 234 224 221 219 214 215 218 222 223
219 229 236 238 250 250 248 245 238 244 253 250 254 264 261 263 264 265 258 254 250 247 245 239 233 251 256 227 215 257 293 287 254 248 237 229 227 218 216 218 217 219 222
230 230 238 245 251 254 252 255 273 284 284 276 265 260 254 258 257 258 260 261 254 240 242 238 225 238 245 237 203 212 235 252 281 245 232 231 225 228 226 217 219 222 221
236 236 238 248 255 258 253 247 250 263 269 266 261 259 263 256 253 251 251 256 253 241 242 242 237 228 227 240 229 228 234 244 249 273 254 235 228 228 226 234 226 222 222
237 239 243 250 257 260 254 242 250 261 261 268 270 268 266 260 254 252 248 249 250 243 241 242 239 232 225 230 231 233 241 242 235 242 259 250 244 229 222 223 221 221 221
255 253 251 251 260 262 258 254 251 258 263 269 272 270 269 266 259 252 254 251 251 242 238 239 236 232 230 232 232 226 228 229 225 232 243 243 251 252 231 223 222 222 220
Height
1513 1512 1512 1512 1512 1511 1511 1511 1511 1512 1512 1512 1512 1512 1512 1513 1513 1514 1514 1514 1515 1515 1516 1516 1517 1517 1517 1518 1518 1519 1519 1519 1519 1519 1519 1519 1519 1519 1519 1519 1518 1519 1519
1512 1512 1512 1512 1511 1511 1511 1511 1511 1511 1511 1511 1511 1511 1512 1512 1512 1513 1513 1514 1514 1514 1515 1516 1516 1516 1517 1517 1517 1518 1518 1518 1518 1518 1518 1519 1519 1519 1519 1518 1518 1519 1519
1512 1512 1511 1511 1511 1511 1510 1510 1510 1510 1510 1510 1510 1510 1510 1511 1511 1511 1512 1512 1513 1513 1514 1514 1515 1515 1516 1516 1516 1516 1517 1517 1517 1517 1518 1518 1518 1518 1518 1518 1518 1519 1519
1511 1511 1511 1510 1510 1510 1510 1509 1509 1509 1509 1509 1509 1509 1509 1509 1509 1510 1510 1511 1511 1512 1512 1513 1513 1514 1514 1515 1515 1515 1515 1516 1516 1516 1517 1517 1518 1518 1518 1518 1518 1519 1519
1510 1510 1510 1510 1509 1509 1508 1508 1508 1507 1507 1507 1507 1507 1507 1507 1508 1508 1508 1509 1509 1510 1510 1511 1511 1512 1512 1513 1513 1514 1514 1514 1515 1515 1516 1516 1517 1517 1517 1518 1518 1518 1518
1509 1509 1509 1509 1508 1508 1507 1507 1506 1506 1505 1505 1505 1505 1505 1505 1505 1506 1506 1507 1507 1508 1508 1509 1509 1510 1510 1510 1511 1512 1512 1513 1513 1514 1515 1515 1516 1516 1516 1517 1517 1517 1518
1508 1508 1508 1507 1507 1506 1506 1505 1504 1504 1503 1503 1503 1503 1503 1503 1503 1503 1504 1504 1505 1505 1506 1506 1507 1507 1508 1508 1509 1509 1510 1510 1511 1512 1513 1514 1514 1515 1515 1516 1516 1516 1517
1507 1507 1506 1506 1505 1505 1504 1503 1503 1502 1501 1501 1501 1500 1500 1500 1500 1501 1501 1502 1502 1503 1503 1504 1504 1504 1505 1505 1506 1506 1507 1508 1509 1510 1511 1512 1513 1513 1514 1514 1515 1515 1515
1506 1505 1504 1504 1503 1503 1502 1501 1501 1500 1499 1498 1498 1498 1498 1497 1498 1498 1498 1499 1499 1500 1500 1501 1501 1502 1502 1502 1503 1503 1504 1505 1506 1507 1508 1509 1510 1511 1512 1512 1513 1514 1514
1504 1503 1503 1502 1501 1500 1500 1499 1499 1498 1497 1496 1496 1495 1495 1495 1495 1495 1495 1496 1496 1497 1497 1498 1498 1498 1499 1499 1500 1500 1501 1502 1503 1505 1506 1507 1508 1508 1509 1510 1511 1511 1512
1502 1501 1500 1500 1499 1498 1497 1497 1496 1496 1495 1494 1493 1493 1492 1492 1492 1492 1492 1492 1492 1493 1493 1494 1495 1495 1495 1496 1496 1497 1498 1498 1500 1501 1502 1504 1505 1506 1506 1507 1508 1509 1509
1500 1499 1498 1497 1497 1496 1495 1494 1494 1493 1492 1492 1491 1490 1490 1489 1489 1489 1488 1489 1489 1489 1490 1490 1491 1491 1492 1492 1493 1494 1494 1495 1496 1497 1498 1500 1501 1502 1503 1504 1505 1506 1507
1498 1497 1496 1495 1494 1493 1493 1492 1491 1490 1489 1489 1488 1487 1487 1486 1486 1486 1485 1485 1485 1486 1486 1487 1487 1487 1488 1488 1489 1489 1490 1491 1492 1493 1494 1496 1497 1498 1499 1500 1501 1502 1504
1495 1495 1494 1493 1492 1491 1490 1489 1488 1487 1486 1486 1485 1484 1483 1482 1482 1482 1481 1481 1481 1481 1481 1482 1483 1483 1484 1484 1484 1485 1486 1487 1488 1489 1490 1492 1493 1494 1495 1496 1497 1498 1500
1492 1492 1491 1491 1490 1489 1487 1486 1485 1484 1483 1483 1482 1481 1480 1479 1478 1478 1478 1477 1477 1477 1477 1477 1478 1479 1479 1480 1480 1481 1481 1482 1483 1484 1486 1487 1488 1490 1491 1492 1493 1494 1496
1490 1489 1489 1488 1487 1486 1484 1483 1482 1481 1480 1479 1479 1478 1477 1476 1475 1474 1474 1474 1473 1473 1473 1473 1474 1474 1475 1475 1475 1476 1477 1478 1478 1480 1481 1482 1484 1485 1486 1487 1489 1490 1491
1487 1486 1486 1485 1484 1483 1481 1480 1479 1478 1477 1476 1475 1474 1473 1472 1472 1471 1470 1469 1469 1469 1470 1470 1470 1470 1470 1471 1471 1472 1472 1473 1474 1474 1476 1477 1478 1480 1481 1483 1484 1485 1487
1483 1483 1482 1482 1480 1479 1478 1476 1475 1474 1473 1472 1471 1470 1469 1468 1468 1467 1466 1465 1465 1465 1465 1465 1465 1465 1466 1466 1466 1467 1468 1468 1469 1469 1470 1472 1473 1475 1476 1478 1479 1480 1482
1480 1479 1479 1478 1477 1476 1474 1472 1471 1470 1469 1468 1467 1465 1465 1464 1463 1463 1462 1461 1461 1461 1461 1461 1461 1461 1461 1461 1462 1462 1462 1463 1464 1464 1465 1466 1468 1469 1471 1473 1474 1476 1477
1477 1476 1475 1475 1474 1472 1470 1468 1467 1465 1464 1463 1462 1461 1460 1459 1459 1458 1457 1457 1457 1456 1456 1456 1456 1457 1457 1457 1457 1457 1458 1458 1459 1459 1460 1461 1462 1464 1465 1467 1469 1470 1472
1473 1473 1472 1471 1470 1468 1466 1464 1462 1460 1459 1458 1457 1456 1455 1454 1454 1453 1453 1452 1452 1451 1451 1451 1451 1452 1452 1453 1453 1452 1452 1452 1453 1454 1455 1455 1457 1458 1460 1461 1463 1465 1466
1469 1469 1468 1467 1466 1465 1463 1461 1459 1457 1455 1453 1452 1451 1450 1449 1449 1448 1448 1447 1446 1446 1445 1446 1446 1446 1447 1448 1449 1449 1447 1446 1446 1448 1449 1450 1451 1453 1454 1456 1457 1459 1461
1466 1465 1465 1464 1462 1461 1460 1457 1455 1453 1450 1449 1447 1446 1445 1444 1444 1443 1442 1441 1441 1441 1440 1440 1441 1442 1441 1443 1445 1446 1445 1442 1442 1442 1443 1445 1446 1447 1448 1450 1451 1453 1455
1462 1462 1461 1460 1458 1457 1455 1453 1450 1448 1445 1444 1442 1441 1440 1439 1438 1437 1436 1436 1435 1434 1434 1434 1435 1436 1437 1437 1439 1440 1441 1440 1440 1437 1437 1439 1440 1441 1442 1444 1445 1447 1449
1459 1458 1457 1455 1454 1452 1450 1448 1446 1443 1441 1439 1437 1435 1434 1433 1432 1431 1430 1430 1429 1428 1428 1429 1429 1430 1431 1431 1432 1433 1434 1434 1435 1434 1431 1433 1434 1434 1436 1437 1439 1441 1442
1455 1453 1452 1450 1449 1447 1445 1443 1441 1439 1436 1434 1432 1430 1428 1427 1426 1425 1424 1423 1423 1422 1422 1422 1422 1423 1424 1425 1426 1427 1427 1427 1428 1429 1427 1426 1427 1428 1429 1431 1433 1434 1436